{"data":{"norad_id":52320,"intl_designator":"2022-043A","name":"SUPERVIEW NEO-1 01","alt_names":[],"object_type":"PAYLOAD","status":"ACTIVE","operator":null,"country":"PRC","launch_date":"2022-04-29","launch_site_code":"JSC","launch_vehicle":null,"mission":null,"orbit_class":"UNKNOWN","rcs_meters":null,"size_class":null,"mass_kg":null,"dimensions":null,"purposes":[],"wikipedia_slug":null,"has_3d_model":false,"image_url":null,"decayed_at":null,"tle_current":{"epoch":"2026-05-25T04:19:59.517408Z","epoch_age_seconds":62753,"freshness":"FRESH","line1":"1 52320U 22043A   26145.18054997  .00003820  00000+0  20066-3 0  9993","line2":"2 52320  97.3409 218.7004 0002288  49.6550 310.4882 15.16280106226070","mean_motion":15.16280106,"eccentricity":0.0002288,"inclination_deg":97.3409,"raan_deg":218.7004,"arg_perigee_deg":49.655,"mean_anomaly_deg":310.4882,"bstar":0.00020066,"rev_number":22607,"period_min":94.969260250916,"perigee_km":515.51737306348,"apogee_km":518.67263122766,"semimajor_km":6895.2320021456,"source":"CELESTRAK","updated_at":"2026-05-25T13:37:57.686505Z"}}}